EW5254 Weather Reports


Display with metric or nautical units.
time (UTC)temp
F
wind
direction
speed
MPH
gust
MPH
rain 1hr
in
rain 24hr
in
rain mn
in
humidity
%
barometer
mb
20260506134517 64 277 0.0 1.0 0.00 0.00 0.00 35 1001.3
20260506133018 63 286 0.0 3.0 0.00 0.00 0.00 35 1001.2
20260506131516 63 286 2.0 4.0 0.00 0.00 0.00 35 1001.1
20260506130011 63 276 1.0 3.0 0.00 0.00 0.00 35 1000.7
20260506124509 63 286 1.0 3.0 0.00 0.00 0.00 35 1000.6
20260506123007 63 281 1.0 4.0 0.00 0.00 0.00 34 1000.4
20260506121506 64 281 1.0 4.0 0.00 0.00 0.00 34 1000.3
20260506120003 64 289 2.0 6.0 0.00 0.00 0.00 33 1000.1
20260506114501 65 259 1.0 4.0 0.00 0.00 0.00 33 999.9
20260506113002 65 231 2.0 4.0 0.00 0.00 0.00 32 999.9
20260506111600 65 228 2.0 4.0 0.00 0.00 0.00 32 999.9
20260506110104 64 246 2.0 5.0 0.00 0.00 0.00 33 999.9
20260506104616 65 292 2.0 4.0 0.00 0.00 0.00 33 999.9
20260506103058 64 301 3.0 4.0 0.00 0.00 0.00 33 999.8
20260506101603 65 298 2.0 4.0 0.00 0.00 0.00 32 999.6
20260506100056 65 292 3.0 5.0 0.00 0.00 0.00 32 999.6
20260506094559 65 297 3.0 4.0 0.00 0.00 0.00 32 999.6
20260506093102 65 303 2.0 4.0 0.00 0.00 0.00 31 999.4
20260506091552 65 288 2.0 4.0 0.00 0.00 0.00 30 999.6
20260506090051 65 290 2.0 4.0 0.00 0.00 0.00 30 999.4
20260506084552 66 294 2.0 5.0 0.00 0.00 0.00 29 999.4
20260506083050 66 291 4.0 7.0 0.00 0.00 0.00 29 999.6
20260506081548 66 278 3.0 6.0 0.00 0.00 0.00 28 999.6
20260506073045 68 250 4.0 8.0 0.00 0.00 0.00 27 999.9
20260506071552 68 236 3.0 8.0 0.00 0.00 0.00 27 999.7
20260506061531 68 211 3.0 7.0 0.00 0.00 0.00 28 999.5
20260506044525 70 103 2.0 3.0 0.00 0.00 0.00 26 999.2
20260506043025 71 339 1.0 3.0 0.00 0.00 0.00 25 999.3
20260506041528 70 339 1.0 3.0 0.00 0.00 0.00 25 999.0
20260506040025 70 339 0.0 0.0 0.00 0.00 0.00 25 998.6
20260506034520 70 339 0.0 0.0 0.00 0.00 0.00 25 998.7
20260506033026 71 339 0.0 0.0 0.00 0.00 0.00 24 998.1
20260506031524 71 339 0.0 2.0 0.00 0.00 0.00 25 997.9
20260506030023 71 339 1.0 4.0 0.00 0.00 0.00 25 997.8
20260506024518 71 322 2.0 5.0 0.00 0.00 0.00 25 997.6
20260506023018 71 282 3.0 7.0 0.00 0.00 0.00 24 997.8
20260506021517 72 313 2.0 6.0 0.00 0.00 0.00 24 997.2
20260506020022 72 281 4.0 8.0 0.00 0.00 0.00 23 997.4
20260506014519 72 330 1.0 3.0 0.00 0.00 0.00 23 997.0
20260506013025 73 347 1.0 2.0 0.00 0.00 0.00 22 997.2
20260506011514 73 322 1.0 8.0 0.00 0.00 0.00 22 996.9
20260506010023 74 323 6.0 11.0 0.00 0.00 0.00 22 996.9
20260506004519 74 319 5.0 13.0 0.00 0.00 0.00 22 997.0
20260506003014 75 306 7.0 14.0 0.00 0.00 0.00 21 996.8
20260506001514 77 315 9.0 16.0 0.00 0.00 0.00 19 996.6
20260506000018 78 285 3.0 10.0 0.00 0.00 0.00 18 996.7
20260505234517 80 269 7.0 13.0 0.00 0.00 0.00 18 996.5
20260505233009 80 291 7.0 14.0 0.00 0.00 0.00 18 996.6
20260505231508 79 263 7.0 14.0 0.00 0.00 0.00 18 996.5
20260505230009 77 275 8.0 15.0 0.00 0.00 0.00 18 996.8
20260505224507 78 296 9.0 14.0 0.00 0.00 0.00 18 996.8
20260505223008 77 298 6.0 14.0 0.00 0.00 0.00 19 996.9
20260505221503 78 298 8.0 14.0 0.00 0.00 0.00 18 996.8
20260505220006 77 282 12.0 20.0 0.00 0.00 0.00 18 997.1
20260505214502 78 292 11.0 17.0 0.00 0.00 0.00 17 997.2
20260505213000 79 262 8.0 17.0 0.00 0.00 0.00 18 997.2
20260505211624 80 288 10.0 16.0 0.00 0.00 0.00 18 997.2
20260505210108 81 297 9.0 16.0 0.00 0.00 0.00 19 997.4
20260505204559 82 346 10.0 17.0 0.00 0.00 0.00 19 997.3
20260505203058 83 246 12.0 18.0 0.00 0.00 0.00 18 997.7
20260505201605 81 290 9.0 17.0 0.00 0.00 0.00 19 997.9
20260505200053 81 304 10.0 17.0 0.00 0.00 0.00 20 998.0
20260505194554 80 295 10.0 21.0 0.00 0.00 0.00 20 998.3
20260505193052 80 263 8.0 21.0 0.00 0.00 0.00 20 998.2
20260505191555 79 266 9.0 16.0 0.00 0.00 0.00 20 998.2
20260505184556 77 226 7.0 16.0 0.00 0.00 0.00 22 998.7
20260505183050 77 279 12.0 17.0 0.00 0.00 0.00 21 998.7
20260505181541 77 225 10.0 18.0 0.00 0.00 0.00 22 998.9
20260505180042 76 267 11.0 15.0 0.00 0.00 0.00 23 999.0
20260505174542 75 307 5.0 14.0 0.00 0.00 0.00 24 999.0
20260505173041 75 275 5.0 16.0 0.00 0.00 0.00 25 999.2
20260505171540 75 295 6.0 13.0 0.00 0.00 0.00 25 999.4
20260505170036 75 238 9.0 14.0 0.00 0.00 0.00 25 999.3
20260505164537 74 300 9.0 14.0 0.00 0.00 0.00 25 999.3
20260505163032 74 328 10.0 17.0 0.00 0.00 0.00 25 999.3
20260505161530 74 244 11.0 17.0 0.00 0.00 0.00 25 999.2
20260505153030 73 267 8.0 13.0 0.00 0.00 0.00 26 998.8
20260505151523 71 253 8.0 13.0 0.00 0.00 0.00 27 998.7